Wind_Speed
90 90 89 89 89 90 90 89 89 88 88 88 88 88 88 88 87 87 86 85 85 85 85 85 85 85 85 86 85 85 84 83 82 81 81 80 80 80 80 81 81 82 82 83 83 83 84 84 84 84 84 84 84 85 85 85 85 86 86 86 87 87 87 88 88 89 89 90 90 91 91 91 92 92 92 93 93 94 94 94 94 94 95 95 95 95
89 89 88 88 88 89 89 89 89 89 89 90 90 90 90 89 89 88 87 87 86 86 86 86 86 87 87 86 86 85 84 83 82 81 81 81 82 82 83 83 84 84 84 85 85 85 85 85 85 85 85 85 85 85 86 86 86 87 87 87 87 88 88 89 89 90 90 91 91 92 92 93 93 94 94 94 95 95 95 96 96 96 96 96 96 97
89 89 88 88 88 88 89 89 89 90 90 91 91 91 91 91 90 90 89 89 89 88 88 88 88 88 88 87 86 85 84 83 83 83 83 83 84 85 85 85 86 86 86 86 86 86 86 86 86 86 86 86 86 86 86 86 87 87 87 88 88 89 89 90 90 91 92 92 93 94 94 95 95 96 96 96 97 97 97 98 98 98 98 98 98 98
91 90 89 88 88 89 90 90 91 91 91 92 92 92 92 91 91 91 91 91 91 91 91 90 90 89 88 87 87 86 85 85 85 85 85 86 86 87 87 87 88 88 88 87 87 87 87 86 86 86 86 86 86 86 87 87 87 88 88 89 89 90 90 91 92 93 94 94 95 96 97 97 98 98 99 99 99 99 100 100 100 100 100 100 100 99
91 90 90 90 90 90 91 92 92 92 93 93 93 92 92 92 92 92 92 92 92 92 92 92 91 90 89 89 88 87 87 87 87 88 88 88 89 89 89 89 89 88 88 88 87 87 87 86 86 86 86 87 87 87 88 88 89 89 90 90 91 91 92 93 94 95 96 97 98 98 99 99 100 101 101 101 102 102 102 102 102 102 102 101 101 101
91 91 90 90 91 92 92 93 93 93 93 93 93 93 93 92 92 93 93 93 93 93 93 92 92 91 91 90 90 90 89 90 90 90 90 90 90 90 90 90 89 89 88 88 88 87 87 87 87 87 88 88 88 89 89 90 90 91 91 92 92 93 94 95 96 97 98 99 100 100 101 102 102 103 103 103 104 104 104 104 104 104 104 103 103 103
91 91 91 91 91 92 93 93 93 93 93 93 93 93 93 93 93 93 93 93 93 93 93 93 93 93 93 92 92 92 92 92 92 92 92 92 91 91 90 90 90 89 89 89 88 88 88 88 89 89 89 90 90 91 91 91 92 92 93 93 94 95 96 97 98 99 100 100 101 102 102 103 104 104 104 105 105 105 105 105 105 105 105 105 105 105
91 91 91 91 92 93 93 93 93 93 93 93 93 93 93 93 93 93 93 93 93 94 94 94 94 95 94 94 94 94 93 93 93 93 93 92 92 91 91 90 90 90 90 90 90 90 90 91 91 91 91 92 92 92 93 93 93 94 94 95 96 97 97 98 99 100 101 101 102 103 103 104 104 105 105 105 106 106 106 106 106 106 106 106 106 106
90 91 91 92 92 93 93 94 93 93 92 92 92 92 93 93 93 93 93 93 94 94 94 95 96 96 96 96 95 95 94 94 94 93 93 92 92 92 91 91 91 91 92 92 92 92 93 93 93 93 94 94 94 94 94 95 95 95 96 96 97 98 98 99 100 100 101 101 102 102 103 104 104 104 105 105 105 106 106 106 106 107 107 107 107 107
89 90 91 92 93 93 93 94 93 93 92 92 92 92 92 92 93 93 94 94 95 95 95 96 97 98 98 97 96 96 95 94 94 93 93 93 93 93 93 93 93 94 94 95 95 95 95 96 96 96 96 96 96 96 96 96 96 97 97 98 98 98 99 99 99 100 100 100 101 101 102 102 103 103 104 104 104 105 105 105 105 106 106 106 106 106
89 90 91 92 93 93 93 93 93 92 92 92 92 92 91 92 92 93 94 95 96 96 97 97 98 98 98 98 97 96 95 94 94 94 94 94 94 94 95 95 96 96 97 97 98 98 98 98 98 98 98 98 98 97 97 97 97 97 98 98 98 98 98 98 98 98 98 99 99 99 99 100 100 101 101 101 102 102 103 103 103 103 104 104 104 105
90 91 91 92 93 93 92 92 92 92 92 92 92 92 92 92 92 93 95 96 97 97 97 98 98 98 98 98 97 96 95 95 95 96 96 96 96 97 97 98 98 99 99 100 100 100 100 100 100 100 100 99 99 98 98 97 97 97 97 97 96 96 96 96 96 96 96 96 96 96 96 97 97 97 98 98 99 99 99 100 100 100 101 101 102 102
90 91 91 92 92 92 92 92 92 92 92 92 92 93 94 94 94 94 95 96 97 97 97 97 98 98 98 97 97 96 96 96 97 98 99 99 99 99 100 100 101 101 102 102 103 103 102 102 101 101 101 100 99 98 97 97 96 96 95 95 94 94 93 93 93 93 92 92 92 93 93 93 93 94 94 95 95 96 96 96 97 97 97 98 98 99
90 90 91 91 91 91 91 91 92 92 92 92 93 94 94 95 95 95 96 96 96 96 96 96 97 98 98 98 98 97 97 98 99 100 101 102 102 102 102 103 103 104 104 105 105 105 104 103 102 102 101 100 99 98 97 96 95 94 93 92 92 91 91 90 90 89 89 89 89 89 89 89 90 90 91 91 92 92 93 93 93 94 94 95 95 95
89 90 90 90 91 91 91 91 92 93 93 94 94 94 95 95 96 96 96 96 96 95 95 96 97 98 99 99 99 99 99 100 101 102 103 104 104 104 104 104 105 106 106 106 106 106 105 104 103 102 101 99 98 97 96 94 93 92 91 90 89 89 88 88 87 86 86 85 85 85 85 85 86 86 87 87 88 89 89 90 90 90 91 91 92 92
89 89 90 91 91 91 92 92 93 94 94 94 95 95 95 95 96 95 95 96 96 96 96 97 98 100 101 101 101 100 100 101 102 103 105 106 106 106 105 106 107 108 107 107 107 106 105 104 102 101 100 98 97 95 94 93 91 90 89 88 87 86 86 85 84 83 82 82 81 81 81 81 81 82 83 83 84 85 85 86 87 87 87 88 88 89
89 90 90 91 92 92 93 93 94 94 95 95 95 95 95 95 95 95 95 96 96 97 97 98 100 102 103 104 103 102 101 102 103 105 106 107 108 107 107 107 108 109 108 107 106 105 104 103 101 99 98 96 95 94 92 91 89 88 87 86 85 84 83 82 81 80 79 78 77 77 77 77 77 78 78 79 80 81 82 82 83 84 84 85 85 85
89 90 91 92 93 93 94 94 94 94 94 94 94 94 95 95 95 96 96 97 97 98 99 100 101 103 104 106 105 104 103 103 105 106 107 108 108 108 107 108 108 108 108 107 105 104 102 101 99 97 96 94 93 92 90 88 87 86 85 84 82 81 80 79 78 77 76 75 74 74 73 73 73 74 74 75 76 77 78 78 79 80 81 81 82 82
90 91 92 93 93 93 94 94 94 94 94 94 94 94 95 95 96 96 97 98 99 100 101 102 103 104 105 106 106 105 104 104 105 106 107 108 109 109 108 107 107 107 106 105 103 102 100 98 97 95 93 92 91 89 88 86 84 83 82 81 80 78 77 76 75 74 73 72 71 71 70 70 70 71 71 72 72 73 74 75 76 77 77 78 78 79
91 92 92 92 93 93 93 93 93 93 93 93 94 95 96 97 97 98 99 100 100 101 102 103 104 105 106 106 106 106 105 104 105 106 107 108 108 108 107 106 105 105 104 102 101 99 98 96 94 92 91 90 88 87 85 83 82 80 79 78 77 75 74 73 72 71 70 70 69 68 68 68 68 68 69 69 69 70 71 72 72 73 74 75 75 76
91 91 92 91 91 92 92 92 92 93 93 94 94 96 97 98 99 99 100 101 102 103 103 104 105 106 106 107 107 106 105 104 105 106 106 107 107 106 105 104 103 102 101 100 98 96 95 93 91 89 88 87 86 84 82 81 79 78 76 75 74 73 72 71 70 69 68 68 67 67 67 67 67 67 67 67 68 68 69 69 70 70 71 72 72 73
90 90 91 90 90 91 91 92 93 93 94 94 96 97 98 99 100 101 102 102 103 104 105 106 106 107 107 107 107 105 104 103 103 104 104 105 105 104 102 101 99 99 98 97 95 94 92 90 88 86 85 84 83 81 79 78 76 75 74 73 71 70 69 69 68 67 67 66 66 66 66 66 66 66 66 66 67 67 67 67 68 68 69 69 70 70
89 89 90 90 90 91 91 92 93 94 95 96 97 98 98 99 101 102 103 103 104 105 106 106 107 107 106 106 106 104 103 102 101 101 102 102 102 101 99 97 96 96 95 94 92 91 89 87 85 83 82 81 79 78 76 75 74 73 71 70 69 68 68 67 67 66 66 65 65 65 65 65 66 66 66 66 66 66 66 66 66 67 67 67 68 68
88 89 89 90 90 91 92 93 94 95 96 97 98 98 99 100 101 102 103 104 105 105 106 106 106 106 106 105 104 102 101 99 98 98 98 99 98 97 96 94 93 92 92 91 89 88 86 84 82 80 79 77 76 75 73 72 71 70 69 68 67 67 67 66 66 65 65 65 64 64 64 64 64 64 64 65 64 64 65 65 65 65 65 66 66 66
88 89 90 90 91 92 93 94 95 96 97 98 99 100 100 101 102 103 104 104 105 105 105 105 106 105 104 103 102 100 98 96 95 95 95 95 95 94 92 90 90 89 89 87 86 84 82 80 78 77 75 74 73 71 70 69 68 67 67 66 66 66 66 66 65 65 64 64 63 63 62 62 62 62 62 63 63 63 63 63 63 63 63 64 64 64
89 90 91 91 92 93 94 95 97 98 98 99 100 101 102 103 104 104 104 104 104 104 104 104 104 103 101 100 99 97 95 93 92 92 92 92 91 90 89 87 86 86 85 84 83 81 79 77 75 73 72 71 69 68 67 66 66 65 65 65 65 65 65 65 65 64 63 62 62 61 61 60 60 60 60 60 60 60 60 60 61 61 61 62 62 62
90 91 92 93 94 95 96 97 98 99 100 101 101 102 103 103 104 105 105 104 103 102 102 102 101 100 98 97 95 94 92 90 89 88 88 88 88 87 85 84 83 82 82 81 79 77 76 74 72 70 69 68 66 65 65 64 64 64 64 64 64 64 64 64 64 63 61 61 60 59 58 58 57 57 57 57 57 57 58 58 58 58 59 59 60 60
91 92 93 94 95 96 97 98 99 100 101 101 102 102 103 103 104 104 104 102 101 100 100 99 97 96 95 94 92 90 88 87 86 85 84 84 84 83 82 80 79 78 78 77 76 75 73 71 69 67 66 65 64 63 63 63 63 63 63 62 63 63 63 63 62 61 59 58 58 57 56 55 55 54 54 54 54 55 55 55 55 56 56 56 57 57
92 93 94 95 96 98 99 100 100 101 102 102 102 102 102 102 102 102 101 100 99 98 97 95 94 92 91 90 88 87 85 83 82 81 81 81 81 80 78 77 76 75 74 74 73 72 70 68 66 65 64 63 62 62 62 62 62 62 61 61 61 61 61 60 60 59 57 56 55 55 54 53 53 52 52 52 52 52 52 52 53 53 53 54 54 55
93 95 96 97 98 99 100 100 101 101 101 102 102 101 101 100 99 99 98 96 95 94 93 91 90 88 87 86 85 83 82 80 79 78 78 78 77 76 75 74 73 71 71 70 70 70 68 66 64 63 62 61 61 61 61 61 61 61 60 59 58 58 58 58 57 56 55 54 53 53 52 52 51 50 50 49 49 49 49 50 50 50 51 51 52 52
95 96 97 98 99 99 100 100 101 101 101 100 100 99 98 97 96 95 94 93 92 90 89 88 86 84 83 82 81 80 79 77 75 75 74 74 74 73 72 71 69 68 67 67 67 67 66 65 64 62 61 61 60 60 60 60 60 60 59 57 56 55 55 55 54 53 52 51 51 51 51 50 50 49 48 48 47 47 47 47 48 48 48 49 49 49
96 97 98 99 99 99 100 100 100 99 99 98 98 97 95 94 93 92 90 89 88 86 85 83 82 80 79 78 77 76 75 74 73 72 71 71 71 70 69 68 67 65 64 63 63 64 64 65 64 63 61 61 60 59 59 59 58 58 57 55 54 53 53 52 52 51 50 49 49 49 49 49 48 48 47 46 45 45 45 45 45 46 46 46 47 47
98 98 99 99 99 99 99 98 98 97 97 96 94 93 92 90 89 88 86 85 84 82 81 79 78 77 76 74 74 73 72 71 70 69 69 69 68 67 66 65 64 63 62 61 61 62 63 63 64 63 63 61 60 59 58 57 56 55 54 53 52 51 50 50 50 49 48 47 47 47 47 47 47 46 46 45 44 43 43 43 43 43 44 44 44 45
98 98 98 98 98 97 97 96 95 94 93 92 91 90 88 87 85 84 83 81 80 78 77 75 74 73 72 72 71 70 69 68 67 66 66 65 65 64 63 62 61 60 60 60 60 61 62 62 63 63 63 62 60 58 56 55 54 53 52 51 50 49 48 48 48 47 46 46 45 45 45 45 45 45 44 44 43 42 41 41 41 41 41 42 42 42
98 98 97 97 96 95 95 93 92 91 90 89 87 86 85 83 82 80 79 77 76 75 73 72 71 70 69 69 68 67 66 65 64 63 63 62 62 61 60 59 59 59 59 60 60 61 61 62 62 62 62 61 59 57 54 52 51 50 49 48 47 47 46 47 47 46 45 44 43 43 43 43 43 43 43 42 41 41 40 40 39 39 39 40 40 40
97 96 96 95 94 93 92 90 89 88 87 85 84 83 81 80 78 77 75 74 73 71 70 69 68 67 66 66 65 65 64 63 62 61 60 59 59 58 58 58 58 58 59 59 60 60 61 61 61 61 61 60 58 56 53 51 49 47 46 45 45 44 45 45 45 45 44 43 42 42 41 41 41 41 41 41 40 39 39 38 38 38 37 38 38 38
95 94 93 92 91 90 88 87 86 84 83 82 81 79 78 76 75 74 72 71 70 68 67 66 65 64 63 62 62 61 61 60 59 58 58 57 57 57 57 57 57 58 58 59 59 60 60 60 60 60 59 58 56 54 52 49 47 45 44 43 42 42 43 43 43 43 43 42 41 40 39 39 39 39 39 39 38 38 37 37 36 36 36 36 36 36
93 92 91 89 88 86 85 84 82 81 80 79 77 76 75 73 72 70 69 68 67 66 64 63 62 61 60 59 58 58 58 57 57 56 56 56 56 56 56 57 57 58 58 58 58 58 58 58 58 57 57 56 55 53 50 48 45 43 42 41 40 40 41 41 41 42 41 41 40 38 38 37 37 37 37 37 37 36 36 35 35 34 34 34 34 34
90 89 88 86 85 83 82 81 79 78 77 75 74 73 71 70 69 68 66 65 64 63 62 60 59 58 57 56 56 55 55 55 55 55 55 55 55 56 56 57 57 57 57 57 56 56 56 55 55 55 55 54 53 51 49 46 44 42 40 40 39 39 39 39 39 39 39 39 38 37 36 35 35 35 35 35 35 34 34 33 33 32 32 32 32 32
88 86 85 83 81 80 79 77 76 75 73 72 71 70 69 68 66 65 63 62 61 60 59 57 57 55 54 54 53 53 53 54 54 54 54 54 55 55 55 56 56 56 56 55 55 54 53 53 53 52 52 52 51 50 47 45 42 40 39 38 38 38 37 37 37 37 37 37 36 35 34 33 33 33 33 33 33 32 32 32 31 31 30 30 30 30
84 83 81 80 78 77 75 74 73 71 70 69 68 67 66 65 63 62 60 59 58 57 56 55 54 53 52 52 52 52 52 53 53 53 54 54 54 54 55 55 55 54 54 53 52 52 51 50 50 50 50 50 49 48 46 43 40 38 37 36 36 36 36 35 34 34 34 34 34 33 33 32 31 31 31 31 31 30 30 30 30 29 29 29 28 28
81 80 78 77 75 74 72 71 70 69 68 67 66 65 64 62 61 59 58 56 55 54 54 53 53 52 51 51 51 51 52 52 53 53 53 53 53 53 53 53 53 52 52 51 50 49 48 47 47 47 47 47 47 47 45 42 39 36 34 34 34 34 34 33 32 32 32 32 32 31 31 30 29 29 28 29 29 28 28 28 28 28 27 27 27 27
78 77 75 73 72 70 69 68 67 66 65 64 63 62 61 59 58 56 55 54 53 53 52 52 52 51 51 51 51 51 51 51 52 52 52 52 52 52 52 52 51 50 50 49 48 47 46 45 44 43 44 45 45 45 43 41 37 34 32 32 32 32 32 31 31 30 30 30 30 29 29 28 27 27 26 26 26 26 26 26 26 26 26 26 26 25
75 73 72 70 69 67 66 65 64 63 63 62 61 60 58 57 55 54 53 53 52 52 51 51 51 51 52 52 51 51 51 51 51 51 51 51 51 51 50 50 49 48 47 46 45 44 43 42 41 41 41 42 43 43 41 39 36 33 31 30 30 30 30 30 29 29 28 28 28 28 27 26 25 25 24 24 24 24 24 24 24 24 24 24 24 24
72 70 69 67 66 65 64 63 62 61 60 59 58 57 55 54 53 52 52 51 51 51 51 51 51 52 52 52 52 52 51 51 50 50 50 50 49 49 48 48 47 46 45 44 43 41 40 38 38 38 39 40 41 40 39 37 34 32 30 29 29 29 28 28 28 28 28 27 27 26 26 25 24 23 23 22 22 22 22 22 22 22 22 22 23 23
69 67 66 64 63 62 61 61 60 59 58 57 55 54 53 52 51 51 51 51 51 51 51 51 51 52 52 52 52 52 52 51 50 49 49 48 47 47 46 46 45 44 43 42 40 38 37 35 35 36 37 39 39 38 37 35 32 31 29 28 28 27 27 27 27 27 27 27 26 26 25 24 23 22 21 21 21 20 20 20 20 20 20 21 21 21
66 64 63 62 61 60 59 58 57 56 55 54 52 51 51 50 50 50 50 50 50 51 51 51 51 51 52 52 52 52 52 51 50 49 48 47 46 45 45 44 43 42 41 39 38 36 34 33 32 33 35 37 37 37 35 33 31 29 29 28 27 27 26 26 26 27 27 26 26 25 24 24 23 22 21 20 19 19 19 18 18 18 18 19 19 19
63 62 60 59 58 57 56 56 55 54 52 51 50 49 49 48 49 49 49 49 50 50 50 51 51 51 51 51 51 51 51 50 49 48 47 46 45 44 43 42 41 40 39 37 35 33 31 30 30 31 33 34 35 34 33 31 30 29 28 27 27 26 26 26 26 26 26 26 26 25 24 24 22 21 20 20 19 18 18 17 17 17 17 17 17 17
61 59 58 57 56 55 54 53 52 51 50 49 48 47 47 47 48 48 49 49 49 50 50 50 51 51 51 51 50 50 49 48 48 47 46 45 44 43 42 41 40 39 37 35 33 31 29 28 27 29 30 32 32 32 31 30 29 28 27 27 26 26 26 25 25 25 25 25 25 25 24 23 22 21 20 19 18 18 17 16 16 16 16 16 15 15
58 57 56 54 53 52 51 51 50 49 48 47 46 46 46 46 47 47 48 49 49 49 50 50 50 50 50 50 49 48 48 47 46 45 44 44 43 42 41 40 39 37 36 34 32 30 28 26 25 26 28 29 29 29 29 29 28 27 27 27 26 26 25 25 25 25 25 24 24 24 24 23 22 21 20 19 18 17 17 16 16 15 15 15 15 14
56 55 53 52 51 50 49 48 47 47 46 46 46 46 46 46 46 47 47 48 48 49 49 49 50 50 49 49 48 47 46 45 44 43 43 42 41 40 40 39 37 36 35 33 31 29 27 25 24 24 25 26 27 27 27 27 27 27 27 26 26 26 25 25 25 24 24 24 24 23 23 23 22 21 20 19 18 17 16 16 15 15 15 15 14 14
Wind_Direction
291 292 293 293 294 294 295 295 296 296 296 297 297 297 297 297 297 297 296 296 295 295 294 294 293 293 293 293 292 292 292 292 292 292 291 291 291 291 291 291 290 290 290 289 289 288 288 288 287 287 286 285 285 284 284 283 283 282 282 281 281 280 280 279 279 279 278 278 277 277 276 275 275 274 273 273 272 271 270 270 269 268 267 266 265 264
292 292 293 293 294 294 295 295 296 297 297 297 298 298 298 298 298 298 297 297 296 296 295 295 295 294 294 293 293 293 292 292 292 292 292 292 292 292 291 291 291 290 290 290 289 289 288 288 287 286 286 285 285 284 284 283 283 282 282 282 281 281 280 280 280 279 279 278 278 277 276 276 275 274 274 273 272 271 271 270 269 268 268 267 266 265
294 294 294 295 295 295 296 296 297 297 297 298 298 298 298 298 298 298 298 298 297 297 296 296 295 295 295 294 294 293 293 293 293 293 293 293 293 292 292 292 291 291 290 290 289 289 288 288 287 287 286 286 285 285 284 284 283 283 282 282 282 281 281 280 280 280 279 278 278 277 277 276 275 274 274 273 272 271 271 270 269 268 268 267 266 265
295 296 296 296 296 296 296 297 297 297 297 298 298 298 298 298 298 298 298 298 297 297 297 296 296 295 295 294 294 294 294 294 294 294 294 293 293 293 292 292 291 291 290 290 289 289 288 288 287 287 286 286 285 285 284 284 283 283 283 282 282 282 281 281 280 280 279 278 278 277 276 276 275 274 273 273 272 271 270 270 269 268 268 267 266 265
296 296 296 296 296 296 296 297 297 297 297 297 298 298 298 298 298 298 298 297 297 297 296 296 296 295 295 295 295 295 294 294 294 294 294 293 293 293 292 292 291 291 290 290 289 289 288 288 287 287 286 286 286 285 285 284 284 283 283 283 282 282 281 281 280 279 279 278 277 277 276 275 274 274 273 272 271 271 270 269 269 268 268 267 266 266
295 295 296 296 296 296 296 296 296 296 297 297 297 297 297 297 297 297 297 297 296 296 296 296 296 295 295 295 295 295 295 295 295 294 294 293 293 292 292 292 291 291 290 290 289 289 289 288 288 287 287 286 286 285 285 285 284 284 283 283 282 282 281 281 280 279 278 278 277 276 275 274 274 273 272 272 271 270 270 269 269 268 267 267 266 266
294 294 294 294 294 295 295 295 295 296 296 296 297 297 297 296 296 296 296 296 296 296 296 296 295 295 295 295 295 295 295 295 294 294 294 293 293 292 292 292 291 291 291 290 290 290 289 289 288 288 287 287 286 286 285 285 284 284 284 283 282 282 281 280 280 279 278 277 276 276 275 274 274 273 272 272 271 270 270 269 269 268 267 267 266 266
292 292 293 293 293 294 294 294 295 295 295 296 296 296 296 296 296 295 295 295 295 295 295 295 295 295 295 295 295 295 295 294 294 294 293 293 293 292 292 292 292 291 291 291 291 290 290 289 289 288 288 287 287 286 286 285 285 284 284 283 282 282 281 280 279 278 278 277 276 276 275 274 274 273 272 272 271 270 270 269 269 268 267 267 266 266
291 291 292 292 293 293 294 294 294 295 295 295 295 295 295 295 295 295 295 295 295 295 295 295 295 295 295 295 295 294 294 294 294 294 293 293 293 293 293 293 292 292 292 292 291 291 290 290 289 289 288 288 287 287 286 286 285 285 284 283 283 282 281 280 279 279 278 277 277 276 275 275 274 273 273 272 271 271 270 269 269 268 267 267 266 266
290 291 291 292 292 293 293 294 294 294 295 295 294 294 294 295 295 295 295 295 295 295 295 295 295 295 294 294 294 294 294 294 294 294 294 294 294 294 293 293 293 293 293 292 292 291 291 290 290 289 289 288 288 287 287 286 286 285 284 284 283 282 281 280 280 279 278 278 277 276 276 275 274 273 273 272 271 271 270 269 269 268 267 267 266 266
290 291 291 292 292 293 293 293 294 294 294 294 294 294 294 294 295 295 295 295 295 295 295 294 294 294 294 294 294 294 294 295 295 295 294 294 294 294 294 294 294 294 293 293 292 292 291 291 290 290 289 289 288 288 287 287 286 285 285 284 283 282 282 281 280 280 279 278 277 277 276 275 274 274 273 272 271 271 270 269 269 268 267 267 266 265
290 291 292 292 293 293 293 293 294 294 294 294 294 294 294 294 295 295 294 294 294 294 294 294 294 294 294 294 294 295 295 295 295 295 295 295 295 295 295 295 294 294 294 293 293 292 292 291 291 290 290 289 289 288 288 287 286 286 285 284 284 283 282 282 281 280 279 279 278 277 276 275 275 274 273 272 272 271 270 269 269 268 267 267 266 265
291 292 292 292 293 293 293 293 294 294 294 294 294 295 295 295 295 294 294 294 294 294 294 294 294 294 294 294 295 295 296 296 296 296 296 296 296 296 295 295 295 294 294 294 293 293 292 292 291 291 290 290 289 289 288 288 287 286 286 285 284 284 283 282 282 281 280 279 278 278 277 276 275 274 274 273 272 271 271 270 269 268 267 267 266 265
292 292 292 292 293 293 293 294 294 294 294 294 294 295 294 294 294 294 294 293 293 293 294 294 294 294 294 295 295 296 296 296 296 296 296 296 296 296 296 296 295 295 295 294 294 293 293 292 292 291 291 290 290 290 289 288 288 287 287 286 286 285 284 283 282 281 281 280 279 278 277 276 276 275 274 273 272 272 271 270 269 269 268 267 266 266
292 292 292 293 293 293 294 294 294 294 294 294 294 294 294 294 294 293 293 293 293 294 294 294 294 295 295 295 295 296 296 296 296 296 296 296 296 296 296 296 296 295 295 294 294 294 293 293 292 292 292 291 291 290 290 289 289 288 288 287 287 286 285 284 283 282 281 280 279 278 277 276 276 275 274 273 273 272 271 270 270 269 268 267 267 266
292 293 293 293 293 294 294 294 294 294 294 294 294 294 293 293 293 293 293 293 294 294 295 295 295 295 295 295 296 296 296 296 296 296 296 296 296 296 296 296 296 295 295 295 294 294 294 293 293 292 292 292 292 291 291 290 290 289 289 288 288 287 286 285 284 283 282 281 279 278 277 276 275 275 274 273 272 272 271 271 270 269 269 268 267 266
293 293 293 293 294 294 294 294 294 293 293 293 293 293 293 293 293 293 294 294 295 295 295 295 295 295 295 296 296 296 296 296 296 297 296 296 296 296 296 296 296 295 295 295 294 294 294 293 293 293 292 292 292 292 291 291 291 290 290 289 288 288 287 286 285 284 282 281 280 279 277 276 275 274 274 273 272 272 271 271 270 269 269 268 268 267
293 293 293 293 293 293 293 293 293 293 293 293 293 293 293 293 294 294 294 295 295 295 295 295 295 295 295 296 296 296 296 297 297 297 297 296 296 296 296 296 296 295 295 294 294 294 293 293 293 293 293 293 292 292 292 292 291 291 290 290 289 288 287 287 286 284 283 282 281 279 278 277 276 275 274 273 272 272 271 270 270 269 269 268 268 267
293 293 293 292 292 292 292 292 292 292 293 293 293 293 294 294 294 294 295 295 295 295 295 295 295 295 295 295 296 296 296 297 297 297 297 297 296 296 296 296 295 295 294 294 294 293 293 293 293 293 293 293 293 292 292 292 292 291 291 290 290 289 288 287 286 285 284 283 282 281 280 278 277 276 275 274 273 272 271 270 270 269 269 268 268 267
292 292 292 292 292 292 292 292 292 292 293 293 293 294 294 294 295 295 295 295 295 295 295 295 295 295 295 296 296 296 296 297 297 297 297 296 296 296 295 295 295 295 294 294 294 293 293 293 293 293 293 293 293 293 293 293 292 292 291 291 290 289 289 288 287 286 285 284 283 282 281 280 279 278 276 275 274 273 272 271 270 269 269 268 268 267
291 291 291 291 291 291 291 292 292 293 293 293 294 294 294 294 295 295 295 295 296 296 296 296 296 296 296 296 296 296 296 297 297 297 297 296 296 295 295 295 294 294 294 294 293 293 293 293 293 294 294 293 293 293 293 293 293 292 292 291 290 290 289 288 288 287 286 285 285 284 283 282 280 279 278 276 275 274 273 272 271 270 269 268 268 267
290 290 290 291 291 291 292 292 293 293 293 294 294 294 294 295 295 295 296 296 296 296 296 296 296 296 296 296 296 296 296 297 297 297 296 296 295 295 294 294 294 294 294 293 293 293 293 293 294 294 294 294 294 294 294 293 293 292 292 291 291 290 290 289 288 288 287 287 286 285 284 283 282 280 279 278 276 275 274 273 271 270 269 268 267 267
290 290 291 291 291 292 292 293 293 294 294 294 294 295 295 295 296 296 296 296 296 296 296 296 296 296 296 296 296 296 296 296 296 296 296 296 295 294 294 294 294 294 294 293 293 293 293 294 294 294 294 294 294 294 294 294 293 293 292 292 291 291 290 290 289 289 288 288 287 286 285 284 283 281 280 279 277 276 275 273 272 271 270 269 268 267
290 291 291 292 292 293 293 294 294 294 295 295 295 296 296 296 296 296 296 297 297 297 297 297 297 296 296 296 296 296 296 296 296 296 296 295 295 294 294 294 294 294 293 293 293 293 294 294 294 294 294 294 294 294 294 293 293 293 292 292 292 292 291 291 290 290 289 289 288 287 286 284 283 282 281 279 278 277 275 274 273 271 270 269 268 267
291 292 292 293 293 294 294 295 295 295 296 296 296 297 297 297 297 297 297 297 297 297 297 297 297 297 296 297 297 296 296 296 296 296 295 295 294 294 294 294 294 294 293 293 293 294 294 294 294 294 294 294 294 294 294 293 293 293 293 293 293 293 292 292 291 291 290 290 288 287 286 285 283 282 281 280 278 277 276 275 273 272 271 269 268 267
293 293 294 294 295 295 296 296 296 297 297 297 297 298 298 298 298 298 297 297 297 297 297 297 297 297 297 297 297 297 297 297 296 296 295 295 294 294 294 294 294 294 294 294 294 294 294 294 295 295 294 294 294 294 293 293 293 293 293 294 293 293 293 292 292 291 291 290 289 288 286 285 283 282 281 280 279 278 276 275 274 272 271 270 269 267
294 295 295 296 296 297 297 297 298 298 298 298 298 298 298 298 298 298 298 298 298 298 297 297 297 297 297 297 297 297 297 297 296 296 295 295 294 294 294 294 294 294 294 294 294 294 295 295 295 295 294 294 294 294 294 294 294 294 294 294 294 294 293 293 292 292 291 290 289 288 287 285 284 283 282 280 279 278 277 276 274 273 272 270 269 268
296 296 297 297 298 298 298 298 299 299 299 299 299 299 299 298 298 298 298 298 298 298 297 297 297 297 297 297 297 297 297 296 296 296 295 295 294 294 294 294 294 294 294 295 295 295 295 295 295 295 294 294 294 294 294 294 294 295 295 295 294 294 294 293 293 292 292 291 290 289 288 286 285 284 283 281 280 279 278 276 275 273 272 270 269 268
297 298 298 299 299 299 299 299 299 299 299 299 299 299 299 299 298 298 298 298 298 298 298 298 298 298 297 297 297 297 297 296 296 296 295 295 294 294 294 295 295 295 295 295 296 295 295 295 295 295 295 295 295 295 295 295 295 295 295 295 295 294 294 293 293 292 292 291 291 290 289 288 286 285 284 283 281 280 279 277 276 274 272 271 269 268
299 299 299 300 300 300 300 300 300 300 300 299 299 299 299 299 298 298 298 298 298 298 298 298 298 298 298 297 297 297 297 296 296 296 295 295 295 295 295 295 295 296 296 296 296 296 296 295 295 295 295 295 295 296 296 296 296 296 296 295 295 294 294 293 293 293 293 292 292 291 290 289 288 287 285 284 283 281 280 278 276 275 273 271 270 268
300 300 300 300 300 300 300 300 300 300 300 300 299 299 299 299 299 298 298 298 298 298 298 298 298 298 298 298 297 297 297 297 296 296 296 295 295 295 295 296 296 296 296 296 296 296 296 296 296 296 296 296 296 297 297 297 297 297 296 296 295 295 294 294 293 293 293 293 293 292 292 291 289 288 287 285 284 282 281 279 277 276 274 272 270 269
301 301 301 301 301 301 301 300 300 300 300 300 299 299 299 299 299 298 298 298 298 298 298 298 298 298 298 298 297 297 297 297 297 296 296 296 295 296 296 296 297 297 297 297 297 297 297 297 297 297 297 297 297 297 298 298 297 297 297 297 296 295 295 294 294 294 294 294 294 293 292 292 291 289 288 287 285 284 282 280 278 277 275 273 271 269
301 301 301 301 301 301 301 301 300 300 300 300 300 299 299 299 299 299 299 298 298 298 298 298 298 298 298 298 297 297 297 297 297 296 296 296 296 296 297 297 297 297 297 297 297 297 297 297 298 298 298 298 298 298 298 298 298 298 298 298 297 296 296 295 294 294 294 294 294 293 293 292 291 290 289 288 286 285 283 281 280 278 276 274 272 270
302 302 302 301 301 301 301 301 301 300 300 300 300 299 299 299 299 299 299 299 299 299 299 299 299 298 298 298 298 297 297 297 297 296 296 296 296 297 297 297 298 298 298 298 298 298 298 298 298 299 299 299 299 299 299 299 299 299 299 299 298 298 297 296 295 295 294 294 294 293 293 292 291 290 289 288 287 286 284 282 281 279 277 275 273 271
302 302 302 302 302 301 301 301 301 301 300 300 300 300 299 299 299 299 299 299 299 299 299 299 299 299 299 298 298 298 297 297 297 297 297 297 297 297 298 298 298 299 299 299 299 299 299 299 299 299 299 299 299 299 300 300 300 300 299 300 299 299 298 297 296 295 295 295 294 293 293 292 291 291 290 289 288 286 285 283 282 280 278 276 274 272
302 302 302 302 302 302 301 301 301 301 300 300 300 300 300 300 300 299 300 300 300 300 300 299 299 299 299 298 298 298 298 298 297 297 297 298 298 298 299 299 299 299 299 299 299 299 299 299 299 299 299 299 300 300 301 301 301 300 300 300 300 299 298 297 296 296 295 295 294 293 293 292 291 290 290 289 288 287 286 284 283 281 279 278 276 274
303 302 302 302 302 302 302 301 301 301 301 301 300 300 300 300 300 300 300 300 300 300 300 300 300 299 299 299 298 298 298 298 298 298 298 299 299 299 299 300 300 300 300 300 300 300 300 300 300 300 300 300 301 301 302 302 302 302 301 301 300 299 298 297 296 296 295 295 294 294 293 292 291 291 290 289 288 287 286 285 284 282 281 279 277 275
303 303 303 303 302 302 302 302 302 301 301 301 301 300 300 300 300 300 301 301 301 301 300 300 300 299 299 299 299 298 298 298 299 299 299 300 300 300 300 300 300 300 300 300 300 300 300 300 300 300 301 301 301 302 302 303 303 303 303 301 300 299 298 297 296 296 295 295 295 294 293 293 292 291 290 289 289 288 287 286 284 283 282 280 278 276
303 303 303 303 303 302 302 302 302 301 301 301 301 300 300 301 301 301 301 301 301 301 301 300 300 300 299 299 299 299 299 299 299 300 300 301 301 301 301 301 300 300 300 300 300 300 300 300 301 301 301 302 302 302 303 304 304 305 304 302 300 299 297 297 296 296 296 295 295 295 294 293 293 292 291 290 289 288 287 286 285 284 282 281 279 277
304 304 303 303 303 303 303 302 302 302 301 301 301 301 301 301 301 301 302 302 301 301 301 300 300 300 300 300 300 300 300 300 300 301 301 301 301 301 301 301 301 300 300 300 300 300 301 301 301 302 302 302 302 303 303 304 305 305 304 303 300 299 297 297 296 296 296 296 296 295 295 295 294 293 292 291 290 288 287 286 285 284 283 281 280 278
304 304 304 304 303 303 303 302 302 302 301 301 301 301 301 301 302 302 302 302 302 301 301 301 301 301 300 300 300 300 301 301 301 301 302 302 302 301 301 301 301 300 301 301 301 301 301 302 302 302 302 302 302 302 303 304 305 306 305 303 301 299 298 298 297 297 297 297 296 296 296 296 295 294 293 292 291 290 288 287 286 284 283 281 280 278
305 304 304 304 304 303 303 303 302 302 302 301 301 301 302 302 302 302 302 302 302 302 301 301 301 301 301 301 301 301 301 301 302 302 302 302 302 302 301 301 301 301 301 301 301 302 302 303 303 303 302 302 301 301 302 304 305 306 305 303 301 299 298 298 298 298 297 297 297 297 297 297 297 296 295 294 293 291 290 288 286 285 283 282 280 278
305 305 305 304 304 303 303 303 302 302 302 302 302 302 302 303 303 303 303 303 302 302 302 302 302 302 302 302 302 302 302 302 302 303 303 303 302 302 302 301 301 301 301 302 302 303 303 303 303 302 302 300 300 300 302 303 305 305 304 302 301 299 299 299 299 298 298 298 298 298 298 298 298 298 297 296 294 293 291 289 288 286 284 282 280 278
305 305 305 304 304 304 303 303 302 302 302 302 302 303 303 304 304 304 303 303 303 303 303 303 303 303 303 303 303 303 303 303 304 303 303 303 303 302 302 302 302 302 302 302 303 303 304 303 303 302 300 299 299 299 301 303 305 305 304 302 301 300 299 300 300 299 299 298 299 299 299 299 300 299 298 297 296 294 293 291 289 287 285 283 281 279
306 305 305 305 304 304 303 303 303 302 302 302 303 303 304 304 304 304 304 304 303 304 304 304 304 304 304 304 304 305 305 305 305 304 304 304 303 303 302 302 302 302 302 303 303 304 304 304 302 301 299 297 297 298 300 303 304 304 304 302 301 300 300 301 301 301 300 300 300 300 300 300 300 300 299 298 297 296 295 293 291 289 287 285 283 280
306 306 305 305 304 304 303 303 303 302 303 303 303 304 304 304 304 304 304 304 304 304 304 304 305 305 305 305 306 306 306 306 306 305 305 304 303 303 303 302 302 303 303 303 304 304 304 303 302 300 298 297 297 298 300 302 304 304 303 302 302 302 302 302 302 302 302 301 301 301 301 301 301 301 300 299 298 297 296 294 293 292 290 287 285 282
306 306 305 305 304 304 303 303 303 302 302 303 303 304 304 304 304 304 304 304 304 304 305 305 305 306 306 306 307 307 307 307 307 306 305 305 304 303 303 303 303 303 303 304 304 304 304 303 301 299 297 296 297 298 300 303 304 304 304 304 304 304 304 304 304 303 303 303 303 302 302 302 301 301 300 299 298 298 297 296 294 293 291 289 287 285
306 306 306 305 304 304 303 303 302 302 303 303 304 304 304 304 304 304 304 305 305 305 306 306 306 307 307 308 308 308 308 308 307 307 306 305 305 304 304 304 304 304 304 304 304 304 303 302 300 298 296 296 297 299 301 303 304 305 305 305 306 306 306 305 305 305 304 304 304 303 303 303 302 302 301 299 298 298 297 296 295 294 292 290 288 286
307 306 306 305 304 303 303 302 302 302 303 303 304 304 304 305 305 305 305 305 306 306 307 307 308 308 308 308 309 309 309 308 308 307 307 306 306 305 305 305 305 304 304 304 304 303 302 301 299 297 296 296 298 300 302 303 305 305 306 307 307 308 307 307 306 305 304 304 303 303 303 302 302 301 300 300 299 298 297 296 295 294 292 290 288 287
307 306 306 305 304 303 303 302 302 303 303 304 305 305 305 305 306 306 306 306 307 307 308 308 309 309 309 309 309 309 309 308 308 307 307 306 306 306 306 306 306 305 305 304 304 303 302 300 297 296 296 297 298 301 303 305 306 307 308 308 308 308 308 307 306 305 304 304 303 302 302 302 301 301 300 299 298 298 297 295 294 293 291 289 287 286
307 306 306 305 304 303 303 303 303 304 304 305 305 306 306 307 307 307 307 308 308 308 309 309 310 310 310 310 310 310 309 309 308 308 307 307 307 306 306 306 306 306 305 305 305 304 303 301 298 296 296 297 300 302 305 307 308 309 309 309 309 308 308 307 306 305 304 303 303 302 301 301 300 300 299 298 298 296 295 294 293 292 290 289 287 285
Height
10473 10471 10469 10467 10464 10460 10456 10454 10453 10451 10448 10446 10445 10443 10441 10439 10437 10435 10433 10431 10429 10427 10425 10423 10421 10419 10417 10416 10414 10412 10411 10410 10409 10407 10406 10405 10403 10402 10400 10399 10397 10396 10394 10392 10391 10390 10388 10387 10386 10384 10383 10382 10380 10379 10377 10376 10374 10373 10372 10371 10369 10369 10367 10366 10366 10364 10363 10362 10361 10360 10359 10358 10358 10357 10356 10356 10355 10354 10354 10354 10354 10354 10354 10354 10354 10354
10467 10465 10463 10461 10458 10454 10450 10447 10447 10445 10442 10439 10437 10436 10434 10431 10429 10427 10425 10423 10421 10419 10417 10415 10413 10411 10409 10407 10406 10404 10403 10402 10401 10399 10398 10397 10395 10393 10392 10390 10388 10387 10385 10384 10382 10381 10379 10378 10377 10376 10374 10373 10372 10370 10369 10367 10366 10364 10363 10362 10361 10360 10359 10357 10356 10355 10354 10352 10352 10351 10349 10348 10347 10347 10346 10345 10344 10344 10343 10342 10342 10342 10342 10342 10342 10343
10459 10457 10455 10453 10451 10448 10444 10441 10439 10438 10437 10434 10431 10429 10427 10425 10422 10419 10417 10415 10412 10411 10409 10407 10405 10403 10401 10399 10397 10396 10395 10394 10392 10391 10390 10388 10386 10385 10383 10381 10379 10378 10376 10375 10374 10372 10371 10369 10368 10367 10366 10364 10363 10361 10360 10359 10357 10356 10354 10353 10352 10351 10350 10349 10347 10346 10344 10343 10342 10341 10339 10338 10337 10336 10334 10334 10333 10332 10331 10331 10331 10330 10331 10330 10331 10331
10452 10449 10447 10446 10444 10441 10438 10436 10433 10431 10430 10428 10426 10423 10421 10419 10416 10413 10411 10408 10405 10402 10400 10399 10397 10395 10392 10391 10389 10388 10387 10386 10384 10383 10381 10380 10378 10376 10374 10372 10371 10369 10367 10366 10365 10364 10362 10361 10359 10358 10357 10356 10354 10352 10351 10350 10349 10347 10346 10345 10344 10342 10341 10340 10339 10337 10335 10333 10332 10330 10329 10327 10326 10324 10322 10322 10321 10320 10319 10319 10318 10317 10317 10317 10318 10318
10444 10442 10440 10439 10436 10434 10431 10429 10427 10426 10423 10422 10420 10417 10415 10412 10410 10407 10404 10401 10399 10396 10393 10391 10389 10387 10384 10382 10381 10380 10379 10378 10376 10375 10373 10371 10369 10367 10366 10364 10362 10361 10359 10357 10356 10355 10353 10352 10351 10349 10348 10346 10345 10344 10342 10341 10340 10339 10337 10336 10335 10334 10332 10331 10329 10327 10325 10323 10321 10319 10317 10315 10314 10312 10311 10309 10308 10307 10306 10306 10306 10305 10305 10305 10305 10306
10438 10437 10435 10433 10431 10428 10426 10423 10421 10419 10418 10416 10414 10412 10409 10407 10404 10401 10397 10394 10392 10389 10386 10383 10381 10378 10376 10374 10373 10372 10371 10370 10368 10366 10365 10362 10361 10359 10357 10355 10354 10352 10350 10349 10347 10346 10344 10343 10342 10341 10339 10337 10336 10334 10333 10332 10331 10330 10329 10327 10326 10324 10322 10321 10319 10316 10314 10311 10309 10307 10305 10303 10301 10299 10297 10296 10295 10294 10294 10293 10292 10292 10292 10292 10292 10292
10433 10431 10430 10428 10425 10422 10421 10417 10416 10414 10412 10410 10407 10405 10403 10401 10398 10395 10392 10388 10385 10382 10379 10376 10372 10370 10368 10367 10366 10364 10363 10362 10360 10358 10356 10354 10352 10350 10348 10347 10345 10343 10341 10339 10338 10336 10335 10334 10332 10331 10329 10328 10326 10325 10324 10323 10322 10321 10319 10318 10316 10314 10312 10310 10307 10304 10302 10299 10297 10294 10292 10291 10289 10287 10285 10284 10282 10282 10281 10280 10280 10279 10279 10279 10279 10280
10428 10426 10424 10422 10420 10417 10414 10412 10411 10409 10407 10405 10402 10399 10396 10394 10391 10388 10386 10382 10379 10375 10372 10368 10364 10362 10360 10359 10357 10356 10355 10354 10352 10350 10347 10346 10344 10342 10340 10337 10336 10334 10332 10330 10329 10327 10326 10324 10322 10321 10319 10318 10316 10316 10314 10313 10312 10311 10309 10307 10306 10303 10301 10298 10296 10292 10290 10287 10284 10282 10280 10278 10276 10274 10272 10271 10270 10269 10268 10267 10267 10266 10266 10266 10267 10267
10424 10421 10418 10416 10414 10412 10408 10405 10403 10403 10402 10400 10397 10394 10391 10387 10384 10381 10378 10375 10371 10368 10366 10362 10357 10354 10351 10350 10349 10349 10347 10346 10344 10342 10339 10337 10334 10332 10331 10329 10327 10324 10322 10321 10319 10317 10315 10313 10312 10310 10309 10307 10306 10305 10304 10303 10302 10300 10298 10296 10294 10291 10289 10286 10283 10281 10278 10275 10272 10270 10267 10266 10263 10261 10259 10258 10257 10256 10255 10254 10254 10253 10253 10253 10254 10254
10420 10417 10413 10410 10407 10406 10404 10399 10396 10395 10396 10394 10391 10387 10386 10382 10378 10374 10371 10367 10364 10361 10359 10355 10351 10347 10343 10341 10341 10341 10339 10337 10335 10333 10331 10329 10326 10324 10321 10319 10317 10314 10312 10310 10307 10306 10304 10302 10301 10299 10297 10296 10295 10294 10293 10292 10291 10289 10286 10284 10282 10279 10276 10274 10271 10269 10266 10263 10261 10258 10255 10252 10251 10248 10247 10245 10244 10242 10241 10241 10241 10241 10240 10240 10240 10241
10413 10411 10408 10404 10401 10399 10397 10395 10392 10389 10388 10386 10383 10380 10378 10376 10374 10369 10364 10359 10356 10353 10351 10347 10344 10341 10337 10333 10331 10331 10331 10329 10327 10324 10321 10319 10317 10314 10312 10310 10307 10304 10302 10299 10296 10294 10292 10291 10289 10287 10286 10285 10284 10282 10282 10281 10279 10277 10274 10272 10269 10267 10264 10262 10259 10256 10254 10251 10248 10246 10243 10241 10238 10236 10234 10232 10231 10230 10229 10229 10228 10227 10227 10227 10227 10227
10407 10404 10401 10398 10396 10392 10391 10388 10386 10384 10381 10379 10376 10372 10369 10367 10366 10364 10360 10354 10349 10346 10343 10340 10336 10333 10330 10327 10324 10322 10322 10321 10318 10315 10312 10309 10306 10304 10303 10301 10297 10294 10291 10289 10285 10282 10281 10280 10278 10276 10274 10274 10272 10271 10270 10269 10267 10265 10262 10260 10257 10255 10252 10249 10247 10244 10241 10239 10236 10233 10231 10229 10226 10224 10222 10221 10219 10218 10217 10216 10216 10215 10215 10215 10215 10215
10401 10398 10396 10392 10389 10386 10384 10381 10379 10376 10374 10372 10369 10366 10362 10359 10357 10356 10352 10348 10344 10341 10338 10334 10329 10325 10322 10319 10317 10316 10314 10312 10309 10306 10302 10299 10296 10294 10293 10290 10287 10283 10281 10277 10274 10271 10269 10268 10266 10264 10262 10261 10261 10259 10257 10256 10254 10252 10250 10248 10246 10243 10240 10237 10234 10232 10229 10227 10224 10222 10219 10217 10215 10213 10211 10209 10207 10206 10206 10204 10204 10204 10203 10203 10203 10203
10394 10392 10389 10386 10382 10380 10377 10375 10372 10369 10366 10364 10362 10359 10356 10352 10349 10347 10344 10340 10337 10334 10332 10328 10323 10317 10313 10311 10309 10309 10307 10305 10301 10297 10294 10289 10286 10284 10284 10281 10276 10272 10269 10266 10262 10259 10256 10256 10254 10252 10250 10249 10248 10247 10246 10244 10242 10240 10238 10236 10234 10231 10228 10225 10222 10220 10218 10216 10214 10211 10209 10207 10204 10202 10200 10199 10197 10196 10194 10194 10193 10192 10192 10192 10192 10192
10387 10385 10382 10378 10376 10373 10371 10368 10365 10362 10359 10356 10354 10352 10349 10345 10342 10339 10337 10332 10329 10327 10325 10321 10316 10311 10306 10302 10301 10301 10301 10297 10294 10290 10286 10280 10276 10274 10274 10272 10267 10261 10257 10255 10252 10248 10245 10244 10242 10241 10238 10237 10236 10234 10233 10232 10230 10228 10226 10224 10221 10219 10216 10214 10211 10209 10207 10205 10203 10201 10199 10196 10194 10192 10190 10188 10186 10185 10184 10183 10182 10182 10182 10182 10182 10182
10381 10378 10375 10371 10368 10366 10363 10361 10358 10355 10351 10349 10347 10345 10341 10337 10334 10331 10329 10326 10322 10319 10317 10313 10309 10303 10297 10293 10292 10294 10294 10291 10287 10282 10277 10272 10267 10264 10263 10262 10257 10251 10246 10244 10241 10238 10235 10233 10231 10229 10227 10226 10225 10223 10222 10220 10219 10217 10215 10212 10210 10207 10204 10202 10200 10198 10196 10194 10192 10191 10189 10187 10184 10182 10181 10179 10177 10176 10174 10173 10172 10172 10172 10172 10172 10172
10374 10371 10368 10365 10362 10359 10356 10354 10351 10348 10345 10342 10340 10337 10334 10331 10327 10324 10321 10318 10315 10312 10309 10306 10302 10297 10290 10284 10282 10282 10286 10285 10281 10274 10269 10264 10259 10254 10253 10252 10248 10242 10236 10233 10231 10228 10226 10223 10221 10219 10217 10216 10215 10213 10211 10210 10208 10206 10204 10201 10199 10196 10194 10191 10189 10187 10186 10184 10182 10181 10179 10177 10176 10174 10172 10170 10168 10166 10165 10164 10163 10162 10162 10162 10162 10162
10367 10364 10361 10358 10355 10352 10349 10346 10344 10341 10339 10336 10332 10329 10326 10322 10320 10317 10314 10310 10307 10304 10301 10297 10294 10290 10285 10279 10274 10272 10274 10276 10272 10267 10261 10256 10251 10246 10244 10242 10239 10233 10227 10224 10221 10219 10216 10214 10212 10210 10209 10207 10205 10203 10202 10200 10198 10196 10194 10191 10189 10186 10184 10181 10179 10177 10176 10174 10172 10171 10169 10167 10166 10165 10163 10161 10160 10158 10157 10156 10155 10154 10154 10153 10153 10154
10360 10357 10355 10352 10349 10346 10342 10339 10337 10334 10331 10329 10326 10322 10318 10314 10312 10309 10306 10303 10300 10297 10294 10290 10285 10281 10277 10273 10268 10266 10266 10267 10264 10259 10253 10248 10242 10237 10233 10232 10229 10224 10219 10214 10212 10209 10207 10204 10202 10201 10200 10198 10196 10194 10192 10191 10189 10187 10184 10182 10179 10177 10174 10172 10170 10167 10166 10164 10162 10161 10160 10159 10157 10156 10154 10153 10151 10150 10149 10147 10146 10146 10145 10144 10144 10145
10354 10351 10349 10346 10343 10339 10336 10332 10330 10328 10325 10322 10319 10315 10311 10307 10304 10301 10297 10295 10292 10289 10286 10282 10277 10272 10268 10265 10261 10258 10257 10258 10256 10251 10245 10240 10234 10228 10224 10222 10219 10214 10209 10206 10202 10201 10198 10196 10194 10193 10191 10189 10187 10185 10184 10182 10180 10177 10175 10172 10170 10168 10166 10163 10161 10159 10157 10155 10154 10152 10151 10150 10149 10147 10146 10144 10143 10142 10141 10139 10138 10137 10137 10136 10136 10136
10348 10344 10341 10340 10337 10334 10329 10326 10323 10321 10318 10316 10312 10308 10304 10301 10297 10293 10289 10287 10284 10280 10276 10272 10268 10264 10260 10257 10253 10250 10249 10249 10247 10242 10237 10231 10224 10219 10214 10213 10211 10206 10201 10197 10194 10192 10190 10188 10186 10185 10184 10181 10179 10177 10175 10173 10171 10169 10166 10164 10162 10159 10157 10155 10152 10150 10149 10147 10146 10144 10142 10141 10139 10138 10137 10136 10134 10133 10132 10131 10130 10129 10129 10128 10128 10128
10342 10338 10335 10332 10331 10327 10323 10319 10316 10313 10311 10308 10305 10301 10297 10294 10290 10286 10281 10278 10275 10271 10267 10263 10259 10255 10251 10248 10244 10241 10241 10240 10239 10234 10229 10222 10215 10209 10205 10204 10202 10198 10192 10188 10186 10183 10182 10180 10179 10177 10176 10173 10171 10169 10167 10165 10162 10160 10157 10156 10154 10152 10149 10147 10144 10142 10141 10139 10137 10136 10134 10132 10131 10129 10128 10127 10126 10124 10124 10122 10122 10121 10121 10120 10120 10120
10337 10332 10329 10326 10323 10321 10317 10313 10309 10306 10303 10301 10297 10294 10290 10287 10282 10278 10273 10269 10266 10262 10258 10254 10249 10246 10242 10239 10236 10233 10231 10231 10229 10226 10221 10214 10206 10200 10197 10196 10194 10189 10184 10181 10178 10176 10174 10172 10172 10171 10168 10166 10164 10161 10159 10157 10154 10152 10150 10148 10146 10144 10142 10139 10137 10135 10133 10132 10130 10128 10126 10124 10122 10121 10120 10119 10117 10116 10116 10114 10114 10113 10112 10112 10112 10112
10329 10326 10322 10319 10316 10313 10310 10306 10302 10298 10295 10292 10289 10286 10282 10279 10274 10270 10266 10261 10257 10254 10249 10245 10241 10236 10232 10229 10227 10224 10222 10222 10220 10217 10211 10205 10198 10192 10189 10188 10186 10181 10176 10173 10171 10169 10166 10165 10164 10163 10161 10159 10157 10154 10152 10150 10147 10145 10142 10141 10139 10136 10134 10132 10129 10127 10126 10124 10122 10121 10119 10117 10115 10113 10112 10111 10109 10108 10107 10107 10106 10105 10104 10104 10104 10104
10322 10319 10315 10312 10309 10306 10302 10298 10294 10291 10287 10284 10280 10276 10272 10269 10264 10260 10256 10252 10249 10245 10241 10237 10232 10227 10223 10220 10217 10215 10212 10212 10211 10207 10202 10196 10190 10185 10182 10181 10178 10174 10169 10166 10163 10162 10160 10159 10157 10156 10154 10152 10150 10147 10146 10143 10141 10138 10136 10134 10132 10129 10127 10124 10122 10121 10119 10117 10115 10113 10111 10109 10107 10106 10104 10103 10102 10101 10100 10099 10098 10097 10097 10096 10096 10096
10314 10311 10307 10304 10301 10297 10294 10290 10286 10282 10278 10274 10271 10267 10263 10259 10254 10250 10246 10242 10239 10236 10232 10227 10223 10219 10215 10212 10209 10206 10204 10203 10201 10198 10193 10187 10182 10177 10174 10173 10171 10167 10162 10159 10156 10154 10153 10152 10151 10149 10147 10146 10143 10141 10139 10137 10134 10132 10130 10128 10126 10123 10120 10117 10116 10114 10112 10110 10108 10106 10104 10102 10101 10099 10097 10096 10095 10094 10092 10092 10091 10091 10090 10089 10089 10089
10306 10303 10300 10296 10292 10289 10284 10281 10276 10272 10268 10265 10261 10257 10254 10250 10246 10241 10236 10232 10229 10227 10223 10219 10214 10211 10207 10204 10200 10197 10196 10194 10192 10188 10184 10179 10174 10169 10167 10165 10163 10160 10156 10152 10149 10147 10146 10145 10144 10142 10141 10139 10137 10135 10132 10131 10128 10126 10124 10122 10119 10117 10114 10111 10109 10107 10106 10104 10101 10099 10097 10096 10094 10092 10091 10089 10088 10087 10086 10085 10084 10084 10082 10082 10082 10081
10299 10295 10291 10287 10284 10279 10276 10271 10267 10263 10259 10256 10252 10248 10245 10241 10237 10232 10226 10222 10220 10217 10214 10210 10206 10202 10199 10195 10192 10189 10187 10186 10183 10179 10176 10171 10166 10162 10160 10158 10156 10153 10150 10146 10142 10140 10139 10139 10137 10136 10134 10132 10131 10129 10126 10124 10122 10120 10118 10116 10114 10111 10107 10105 10103 10101 10099 10097 10095 10092 10091 10089 10087 10086 10084 10083 10082 10081 10079 10079 10077 10077 10076 10076 10075 10074
10291 10287 10283 10279 10275 10271 10267 10262 10258 10254 10251 10247 10242 10239 10235 10232 10228 10223 10218 10215 10212 10208 10204 10201 10198 10195 10191 10187 10184 10181 10179 10177 10175 10172 10167 10163 10159 10155 10154 10151 10149 10147 10144 10140 10136 10133 10132 10131 10131 10129 10127 10126 10124 10122 10120 10118 10116 10114 10112 10110 10107 10105 10102 10099 10097 10095 10093 10091 10089 10086 10084 10082 10081 10080 10079 10077 10076 10075 10074 10072 10071 10071 10070 10069 10069 10068
10282 10279 10275 10271 10267 10262 10259 10254 10250 10246 10241 10237 10234 10230 10226 10222 10219 10215 10211 10207 10204 10200 10196 10193 10190 10187 10184 10180 10176 10173 10171 10169 10167 10164 10161 10156 10152 10149 10147 10145 10143 10141 10139 10135 10131 10127 10124 10124 10124 10123 10121 10120 10118 10117 10114 10112 10109 10107 10106 10104 10102 10099 10096 10094 10091 10089 10087 10085 10082 10081 10078 10076 10075 10074 10072 10071 10070 10069 10068 10067 10066 10065 10064 10063 10062 10062
10274 10270 10266 10262 10258 10254 10250 10246 10241 10237 10233 10229 10225 10221 10217 10214 10210 10206 10202 10199 10196 10192 10189 10186 10182 10179 10177 10173 10169 10166 10163 10161 10159 10157 10153 10149 10145 10142 10141 10139 10137 10135 10134 10131 10126 10122 10117 10116 10116 10116 10115 10114 10112 10111 10109 10106 10104 10101 10099 10097 10096 10094 10091 10088 10086 10084 10082 10080 10077 10075 10072 10071 10069 10068 10067 10066 10065 10064 10062 10062 10061 10059 10058 10057 10057 10057
10264 10261 10257 10253 10249 10245 10241 10237 10232 10229 10224 10221 10216 10212 10209 10206 10202 10199 10195 10192 10188 10185 10182 10179 10176 10172 10169 10167 10163 10160 10157 10154 10152 10149 10147 10143 10139 10137 10136 10134 10131 10129 10127 10125 10122 10118 10114 10110 10108 10107 10107 10107 10106 10105 10103 10101 10098 10096 10094 10092 10090 10087 10085 10082 10080 10078 10076 10075 10072 10070 10068 10066 10064 10063 10062 10061 10060 10059 10057 10057 10056 10054 10053 10052 10052 10052
10256 10252 10248 10244 10241 10237 10232 10229 10224 10220 10216 10212 10208 10204 10201 10197 10194 10191 10187 10184 10181 10178 10175 10172 10169 10166 10162 10159 10157 10154 10151 10148 10146 10143 10141 10137 10134 10131 10130 10128 10126 10124 10121 10119 10117 10114 10110 10106 10103 10101 10100 10099 10099 10098 10097 10096 10093 10091 10088 10086 10084 10082 10079 10077 10075 10073 10071 10070 10068 10066 10064 10061 10060 10058 10057 10056 10055 10054 10053 10052 10051 10050 10049 10048 10047 10047
10247 10244 10239 10236 10232 10228 10224 10220 10216 10212 10208 10204 10200 10196 10193 10189 10186 10183 10180 10177 10174 10171 10168 10166 10162 10159 10156 10153 10150 10147 10145 10142 10141 10138 10135 10132 10129 10126 10124 10122 10121 10119 10116 10113 10111 10108 10105 10102 10099 10096 10094 10092 10092 10092 10091 10090 10087 10086 10083 10081 10079 10076 10074 10072 10070 10068 10067 10066 10064 10062 10059 10057 10056 10054 10052 10051 10051 10049 10049 10047 10046 10046 10044 10044 10043 10042
10239 10235 10231 10227 10224 10220 10216 10212 10208 10204 10200 10196 10192 10189 10186 10182 10179 10176 10173 10170 10167 10164 10162 10159 10156 10154 10151 10147 10144 10141 10139 10137 10135 10132 10130 10127 10124 10122 10120 10117 10116 10114 10111 10108 10106 10103 10100 10097 10094 10092 10089 10087 10086 10086 10086 10084 10082 10081 10078 10076 10074 10072 10069 10067 10064 10063 10062 10061 10059 10058 10056 10054 10052 10050 10049 10047 10046 10045 10044 10043 10042 10041 10041 10040 10039 10038
10231 10227 10223 10219 10216 10212 10207 10204 10200 10196 10192 10189 10185 10181 10178 10175 10172 10169 10166 10164 10161 10158 10156 10153 10151 10148 10145 10142 10139 10136 10133 10131 10129 10127 10125 10122 10120 10117 10115 10112 10111 10109 10106 10103 10101 10098 10095 10092 10089 10087 10084 10082 10081 10080 10079 10079 10077 10076 10074 10072 10070 10067 10065 10062 10060 10058 10057 10056 10055 10054 10052 10050 10048 10046 10045 10043 10042 10041 10040 10039 10038 10037 10037 10036 10035 10034
10223 10219 10215 10211 10207 10204 10200 10196 10192 10189 10185 10181 10177 10174 10171 10168 10166 10162 10160 10157 10155 10152 10150 10147 10145 10142 10140 10137 10134 10131 10128 10126 10124 10122 10120 10117 10116 10113 10111 10108 10106 10104 10102 10099 10096 10093 10091 10087 10084 10082 10079 10077 10076 10074 10074 10073 10072 10071 10069 10067 10066 10064 10061 10059 10056 10054 10052 10052 10051 10050 10048 10047 10045 10043 10041 10040 10039 10037 10036 10035 10034 10034 10033 10032 10031 10031
10216 10211 10207 10204 10200 10196 10192 10189 10185 10181 10178 10174 10171 10167 10164 10162 10159 10157 10154 10151 10149 10147 10144 10142 10139 10137 10135 10132 10130 10127 10124 10121 10119 10117 10115 10113 10111 10109 10106 10103 10101 10099 10097 10094 10092 10089 10086 10083 10080 10077 10074 10072 10071 10070 10069 10068 10067 10066 10064 10063 10061 10060 10057 10055 10052 10051 10049 10047 10047 10046 10044 10043 10041 10039 10038 10036 10035 10034 10032 10032 10031 10030 10029 10028 10027 10027
10208 10204 10200 10196 10192 10189 10186 10182 10178 10174 10171 10167 10164 10161 10159 10156 10153 10151 10149 10146 10144 10141 10139 10136 10134 10132 10130 10128 10126 10122 10120 10117 10115 10112 10111 10109 10106 10104 10102 10099 10096 10094 10092 10089 10087 10085 10082 10079 10076 10074 10071 10068 10066 10065 10064 10064 10062 10061 10060 10058 10057 10056 10054 10052 10049 10047 10046 10044 10043 10042 10041 10039 10038 10036 10035 10033 10032 10031 10029 10028 10027 10026 10026 10025 10024 10023
10201 10196 10192 10189 10186 10182 10179 10175 10171 10168 10165 10161 10158 10156 10152 10151 10148 10146 10144 10141 10139 10136 10134 10131 10129 10127 10125 10123 10121 10118 10116 10113 10111 10109 10106 10104 10102 10100 10097 10094 10092 10089 10087 10085 10082 10081 10079 10076 10073 10070 10067 10065 10062 10061 10060 10059 10059 10058 10056 10054 10052 10051 10050 10049 10047 10044 10042 10041 10039 10038 10037 10036 10034 10033 10032 10031 10029 10027 10027 10026 10024 10023 10022 10021 10021 10020
10193 10189 10186 10182 10179 10175 10172 10169 10165 10162 10159 10156 10152 10149 10147 10145 10142 10141 10138 10136 10134 10131 10129 10126 10124 10122 10121 10119 10117 10114 10112 10109 10107 10105 10102 10100 10097 10095 10092 10090 10087 10085 10082 10080 10078 10076 10074 10072 10070 10067 10064 10061 10059 10057 10056 10056 10055 10054 10053 10051 10049 10047 10046 10045 10043 10042 10039 10037 10036 10034 10033 10032 10031 10030 10029 10027 10026 10025 10024 10022 10021 10020 10019 10018 10017 10017
10187 10183 10179 10176 10172 10169 10166 10162 10159 10156 10153 10150 10147 10144 10142 10140 10137 10136 10133 10131 10129 10126 10124 10121 10119 10117 10116 10114 10112 10111 10108 10106 10103 10101 10098 10096 10093 10091 10088 10086 10083 10081 10078 10076 10074 10072 10071 10069 10067 10064 10061 10058 10056 10054 10052 10052 10052 10051 10050 10048 10046 10044 10042 10041 10040 10038 10036 10034 10032 10031 10030 10029 10028 10027 10026 10025 10023 10022 10021 10020 10019 10017 10016 10016 10014 10014
10180 10177 10173 10169 10166 10163 10160 10156 10153 10151 10147 10144 10142 10139 10137 10135 10132 10130 10128 10126 10123 10121 10119 10117 10115 10112 10111 10109 10108 10106 10104 10102 10100 10097 10094 10091 10089 10086 10084 10081 10079 10076 10074 10072 10071 10069 10067 10066 10064 10061 10058 10055 10052 10051 10049 10049 10049 10048 10047 10045 10042 10041 10039 10037 10036 10035 10033 10032 10030 10028 10027 10026 10025 10024 10023 10022 10021 10019 10018 10017 10016 10015 10014 10013 10012 10011
10174 10171 10167 10164 10161 10157 10154 10151 10148 10145 10142 10139 10137 10134 10132 10130 10128 10126 10123 10121 10119 10116 10114 10112 10110 10108 10106 10104 10102 10101 10100 10098 10096 10093 10090 10087 10084 10082 10079 10077 10074 10072 10071 10069 10067 10066 10064 10062 10061 10058 10055 10052 10049 10047 10047 10046 10046 10045 10044 10042 10040 10038 10036 10034 10032 10031 10030 10029 10027 10026 10024 10023 10022 10021 10021 10019 10018 10017 10016 10014 10014 10012 10011 10011 10010 10009
10168 10164 10161 10158 10155 10152 10149 10146 10143 10141 10137 10135 10132 10131 10128 10126 10124 10121 10119 10116 10114 10112 10110 10107 10106 10103 10101 10099 10097 10096 10094 10093 10091 10089 10086 10083 10081 10077 10075 10072 10071 10069 10067 10066 10064 10062 10061 10059 10057 10054 10051 10049 10046 10045 10044 10044 10043 10042 10041 10039 10037 10036 10034 10032 10030 10029 10027 10026 10024 10023 10022 10021 10020 10019 10017 10017 10016 10014 10013 10012 10011 10011 10009 10009 10007 10007
10162 10159 10156 10153 10150 10147 10144 10141 10138 10136 10133 10131 10129 10126 10124 10122 10119 10117 10115 10112 10110 10107 10106 10104 10101 10099 10097 10095 10093 10091 10089 10087 10086 10084 10081 10079 10076 10074 10071 10069 10067 10066 10064 10062 10061 10060 10059 10057 10054 10051 10048 10045 10043 10042 10042 10042 10041 10039 10037 10036 10034 10032 10031 10029 10027 10026 10024 10023 10022 10021 10020 10019 10017 10017 10016 10014 10013 10012 10011 10010 10009 10008 10007 10007 10006 10006
10157 10154 10151 10147 10145 10142 10139 10136 10134 10131 10129 10127 10125 10123 10121 10118 10116 10113 10111 10109 10106 10104 10101 10099 10097 10095 10093 10091 10089 10086 10084 10082 10080 10078 10076 10074 10072 10070 10068 10066 10064 10062 10061 10059 10058 10057 10056 10054 10052 10049 10045 10042 10041 10040 10039 10039 10038 10036 10034 10032 10031 10030 10028 10027 10025 10024 10022 10021 10019 10019 10017 10017 10016 10014 10013 10012 10011 10010 10009 10008 10007 10006 10006 10005 10004 10004
10151 10149 10146 10143 10140 10137 10134 10132 10129 10127 10125 10123 10121 10119 10117 10115 10112 10110 10107 10105 10102 10100 10098 10096 10094 10091 10089 10087 10085 10082 10080 10077 10075 10073 10071 10069 10067 10066 10064 10062 10061 10059 10057 10056 10055 10054 10053 10051 10049 10046 10042 10040 10038 10037 10037 10036 10036 10034 10032 10030 10029 10027 10026 10024 10023 10021 10020 10019 10017 10016 10015 10014 10013 10012 10011 10010 10009 10008 10007 10006 10005 10004 10004 10003 10002 10002
10146 10144 10141 10138 10136 10133 10131 10128 10126 10124 10121 10119 10117 10116 10114 10111 10109 10106 10104 10101 10099 10097 10094 10092 10089 10087 10086 10083 10081 10079 10076 10074 10071 10069 10067 10065 10063 10061 10059 10058 10056 10055 10054 10053 10052 10051 10051 10049 10047 10044 10041 10038 10036 10036 10034 10034 10032 10031 10029 10027 10026 10025 10023 10022 10021 10019 10017 10016 10015 10014 10013 10012 10011 10010 10009 10008 10007 10006 10006 10004 10004 10002 10002 10001 10001 10000
10142 10139 10136 10134 10131 10129 10126 10124 10122 10119 10117 10116 10114 10112 10110 10108 10106 10103 10101 10098 10096 10093 10091 10088 10086 10084 10081 10079 10077 10075 10072 10070 10067 10065 10063 10061 10059 10057 10056 10054 10052 10051 10050 10049 10049 10048 10047 10047 10045 10042 10039 10037 10035 10034 10032 10031 10029 10028 10027 10025 10024 10022 10021 10019 10018 10017 10016 10014 10013 10012 10011 10010 10009 10008 10007 10006 10006 10004 10004 10002 10002 10001 10000 9999 9999 9998
10137 10134 10132 10129 10127 10124 10122 10120 10118 10116 10114 10112 10110 10108 10106 10104 10102 10099 10097 10094 10092 10089 10087 10085 10082 10080 10078 10076 10074 10071 10069 10067 10064 10062 10059 10057 10056 10054 10052 10051 10049 10047 10046 10046 10044 10044 10044 10043 10042 10041 10038 10036 10034 10032 10030 10029 10027 10026 10024 10022 10021 10020 10019 10017 10016 10014 10013 10012 10011 10010 10009 10007 10007 10006 10005 10004 10003 10002 10001 10001 10000 9999 9998 9997 9997 9997